GW0625 Weather Reports


time (UTC)temp
C
wind
direction
speed
KPH
gust
KPH
rain 1hr
cm
rain 24hr
cm
rain mn
cm
humidity
%
barometer
mb
20260503013044 17 0 0.0 8.0 0.00 0.00 0.00 38 1015.2
20260503011541 17 0 1.6 4.8 0.00 0.00 0.00 38 1015.2
20260503010040 17 49 3.2 6.4 0.00 0.00 0.00 37 1015.4
20260503004603 17 340 0.0 6.4 0.00 0.00 0.00 37 1015.4
20260503003042 17 0 0.0 6.4 0.00 0.00 0.00 36 1015.6
20260503001554 18 43 3.2 16.1 0.00 0.00 0.00 34 1015.6
20260503000043 19 0 0.0 6.4 0.00 0.00 0.00 34 1015.7
20260502234543 19 108 1.6 9.7 0.00 0.00 0.00 33 1015.8
20260502233045 18 0 1.6 8.0 0.00 0.00 0.00 34 1016.1
20260502231539 18 0 0.0 4.8 0.00 0.00 0.00 34 1016.2
20260502230037 18 253 1.6 6.4 0.00 0.00 0.00 33 1016.3
20260502224541 18 170 0.0 6.4 0.00 0.00 0.00 33 1016.5
20260502223043 17 236 1.6 11.3 0.00 0.00 0.00 38 1016.9
20260502221542 17 59 1.6 16.1 0.00 0.00 0.00 36 1017.1
20260502220042 17 355 4.8 16.1 0.00 0.00 0.00 36 1017.2
20260502214534 18 351 6.4 16.1 0.00 0.00 0.00 34 1017.4
20260502213035 17 0 1.6 9.7 0.00 0.00 0.00 36 1017.5
20260502211544 17 31 8.0 22.5 0.00 0.00 0.00 37 1017.7
20260502210049 17 28 4.8 12.9 0.00 0.00 0.00 37 1017.7
20260502204546 18 39 4.8 16.1 0.00 0.00 0.00 34 1017.8
20260502203040 18 298 3.2 19.3 0.00 0.00 0.00 36 1018.0
20260502201549 17 92 0.0 17.7 0.00 0.00 0.00 38 1018.2
20260502200036 17 0 4.8 22.5 0.00 0.00 0.00 38 1018.3
20260502194543 16 72 8.0 16.1 0.00 0.00 0.00 38 1018.5
20260502193044 16 0 1.6 16.1 0.00 0.00 0.00 38 1018.7
20260502191552 15 17 4.8 12.9 0.00 0.00 0.00 41 1018.9
20260502190048 15 27 6.4 20.9 0.00 0.00 0.00 44 1019.3
20260502184548 15 351 6.4 19.3 0.00 0.00 0.00 44 1019.3
20260502183050 15 360 12.9 19.3 0.00 0.00 0.00 44 1019.3
20260502181545 15 26 6.4 19.3 0.00 0.00 0.00 44 1019.4
20260502163052 15 22 11.3 24.1 0.00 0.00 0.00 46 1019.3
20260502161540 15 9 9.7 22.5 0.00 0.00 0.00 45 1019.3
20260502151542 14 355 8.0 17.7 0.00 0.00 0.00 46 1019.2
20260502123041 7 310 1.6 8.0 0.00 0.00 0.00 63 1018.3
20260502121550 7 309 1.6 6.4 0.00 0.00 0.00 64 1018.1
20260502114543 7 340 3.2 8.0 0.00 0.00 0.00 62 1018.0
20260502113039 7 339 3.2 11.3 0.00 0.00 0.00 60 1017.9
20260502111534 8 16 6.4 19.3 0.00 0.00 0.00 58 1017.8
20260502110042 9 33 11.3 16.1 0.00 0.00 0.00 55 1017.6
20260502104543 8 11 9.7 17.7 0.00 0.00 0.00 55 1017.3
20260502103044 9 52 8.0 24.1 0.00 0.00 0.00 54 1017.1
20260502101550 7 5 3.2 12.9 0.00 0.00 0.00 58 1017.0
20260502070039 10 259 6.4 11.3 0.00 0.00 0.00 42 1014.8
20260502064543 10 265 4.8 12.9 0.00 0.00 0.00 43 1014.9
20260502063041 12 250 6.4 11.3 0.00 0.00 0.00 36 1014.9
20260502061543 14 274 0.0 9.7 0.00 0.00 0.00 31 1014.9
20260502060044 12 274 4.8 12.9 0.00 0.00 0.00 36 1014.9
20260502054556 12 284 6.4 12.9 0.00 0.00 0.00 35 1014.9
20260502053036 12 284 4.8 11.3 0.00 0.00 0.00 34 1014.9
20260502051543 13 252 6.4 11.3 0.00 0.00 0.00 34 1014.9
20260502050038 13 265 6.4 11.3 0.00 0.00 0.00 34 1014.9
20260502044541 14 285 4.8 12.9 0.00 0.00 0.00 32 1015.0
20260502043044 13 253 1.6 6.4 0.00 0.00 0.00 34 1014.7
20260502041601 15 313 0.0 4.8 0.00 0.00 0.00 30 1014.6
20260502040043 15 306 3.2 9.7 0.00 0.00 0.00 30 1014.5
20260502034542 16 289 1.6 6.4 0.00 0.00 0.00 29 1014.5
20260502033053 15 0 3.2 11.3 0.00 0.00 0.00 32 1014.4
20260502031541 14 0 0.0 14.5 0.00 0.00 0.00 31 1014.1
20260502030042 17 0 0.0 1.6 0.00 0.00 0.00 25 1013.8
20260502024541 17 0 0.0 4.8 0.00 0.00 0.00 26 1013.8
20260502023035 17 50 1.6 4.8 0.00 0.00 0.00 26 1013.7
20260502021536 18 0 0.0 3.2 0.00 0.00 0.00 26 1013.7
20260502020045 18 0 0.0 4.8 0.00 0.00 0.00 24 1013.6
20260502014541 20 0 1.6 6.4 0.00 0.00 0.00 23 1013.4